Home   Weather   Wilhelmshaven   Past weeks

Flag for Germany Past Weather in Wilhelmshaven, Lower Saxony, Germany — Yesterday and Last 2 Weeks

Now
41 °F

Light rain. Partly sunny.


Feels Like: 35 °F
Forecast: 41 / 44 °F
Wind: 10 mph from Southwest

Location: Wittmundhaven

Current Time: Dec 7, 2016 at 1:40:32 pm

Latest Report: Dec 7, 2016 at 12:20 pm


Visibility: N/A

Pressure: 30.30 "Hg

Humidity: 81%

Dew Point: 36 °F

Location of WilhelmshavenLocation

Past Weather in Wilhelmshaven — Graph

°F

Wilhelmshaven Temperature Yesterday

Maximum temperature yesterday: 36 °F (at 1:20 pm)
Minimum temperature yesterday: 21 °F (at 6:20 am)
Average temperature yesterday: 28 °F

High & Low Weather Summary for the Past Weeks

 TemperatureHumidityPressure
High54 °F (Nov 22, 12:20 pm)100% (Nov 23, 7:20 am)30.57 "Hg (Nov 23, 7:20 am)
Low21 °F (Dec 5, 8:20 am)61% (Nov 28, 12:20 pm)29.77 "Hg (Nov 22, 12:20 pm)
Average37 °F88%30.27 "Hg
* Reported Nov 22 12:20 pm — Dec 7 12:20 pm, Wilhelmshaven, Weather by CustomWeather, © 2016

Note: Actual official high and low records may vary slightly from our data, if they occured in-between our weather recording intervals... More about our weather records

Advertising

Wilhelmshaven Weather History for the Previous 24 Hours

Scroll right to see more
 ConditionsComfort  
Time TempWeatherWind HumidityBarometerVisibility
12:20 pm
Wed, Dec 7
41 °FLight rain. Partly sunny.10 mph81%30.30 "HgN/A
11:20 am39 °FMostly cloudy.10 mph87%30.33 "HgN/A
10:20 am37 °FLight rain. Broken clouds.12 mph87%30.33 "HgN/A
9:20 am37 °FLight rain. Partly sunny.8 mph81%30.33 "HgN/A
8:20 am36 °FPartly cloudy.8 mph87%30.33 "HgN/A
7:20 am34 °FPartly cloudy.9 mph93%30.33 "HgN/A
6:20 am34 °FPassing clouds.9 mph87%30.36 "HgN/A
5:20 am34 °FPartly cloudy.10 mph87%30.36 "HgN/A
4:20 am34 °FPassing clouds.9 mph87%30.39 "HgN/A
3:20 am32 °FPassing clouds.7 mph87%30.42 "HgN/A
2:20 am32 °FPassing clouds.6 mph87%30.42 "HgN/A
1:20 am32 °FPassing clouds.8 mph80%30.42 "HgN/A
12:20 am30 °FPassing clouds.8 mph86%30.45 "HgN/A
11:20 pm
Tue, Dec 6
30 °FPassing clouds.8 mph86%30.45 "HgN/A
10:20 pm30 °FPassing clouds.6 mph86%30.45 "HgN/A
9:20 pm32 °FPassing clouds.7 mph87%30.48 "HgN/A
8:20 pm30 °FPassing clouds.6 mph86%30.48 "HgN/A
6:20 pm30 °FPassing clouds.5 mph86%30.48 "HgN/A
5:20 pm32 °FPassing clouds.6 mph80%30.45 "HgN/A
4:20 pm32 °FPassing clouds.2 mph80%30.48 "HgN/A
3:20 pm36 °FScattered clouds.3 mph75%30.48 "HgN/A
2:20 pm36 °FPassing clouds.5 mph70%30.45 "HgN/A
1:20 pm36 °FPassing clouds.5 mph65%30.45 "HgN/A
Weather by CustomWeather, © 2016

See weather overviewHow to use our weather pages